Main page
METAR-TAF:

METAR-TAF

Airports :

Mopti Airport

Mopti, Mali

latitude: 14-30-46N, longitude: 004-04-46W, elevation: 276 m

Current weather observation

The report was made 59 minutes ago, at 07:00 UTC
Wind 4 kt from the North/Northeast
Temperature 22°C
Humidity 21%
Pressure 1012 hPa
Visibility: 8000 m

METAR: GAMB 080700Z 02004KT 8000 NSC 22/M01 Q1012

Time: 07:59 (07:59 UTC)


TAF: missing

Weather observations and forecasts of more than 4000 airports (METAR and TAF reports).

The available stations are represented by yellow and red dots on the map.

Hover mouse over dot to see the name of the station.

Then click to see weather observations and forecasts.

To change the map : click on the green buttons with a black cross to zoom in, on the green button with a dash to zoom out, or on the green arrows for adjacent maps.


METAR-TAF: